WetterOnline ( https://www.wetteronline.de )

Wetter aktuell Vougeot

Aktuelles Wetter: Langres (467m)

6-stündlich | Neueste Meldungen
Ortszeit Temperatur Wetter
Di, 23.07. 8:00 17.1° C bedeckt
Di, 23.07. 2:00 14.4° C wolkig
Mo, 22.07. 20:00 20.8° C -
Mo, 22.07. 14:00 21.3° C bewölkt
Mo, 22.07. 8:00 16.3° C bedeckt
Mo, 22.07. 2:00 18.5° C bedeckt
So, 21.07. 20:00 19.8° C bedeckt
So, 21.07. 14:00 20.8° C bedeckt
Ortszeit Temperatur Wetter
Di, 23.07. 13:00 20.8° C bedeckt
Di, 23.07. 12:00 18.6° C bedeckt
Di, 23.07. 11:00 19.9° C bedeckt
Di, 23.07. 10:00 18.6° C bedeckt
Di, 23.07. 9:00 17.8° C bedeckt
Di, 23.07. 8:00 17.1° C bedeckt
Ortszeit Relative Feuchte Sichtweite
Di, 23.07. 8:00 92% 20 km
Di, 23.07. 2:00 95% 20 km
Mo, 22.07. 20:00 61% 20 km
Mo, 22.07. 14:00 61% 20 km
Mo, 22.07. 8:00 94% 20 km
Mo, 22.07. 2:00 98% 16 km
So, 21.07. 20:00 84% 20 km
So, 21.07. 14:00 86% 20 km
Ortszeit Relative Feuchte Sichtweite
Di, 23.07. 13:00 77% 20 km
Di, 23.07. 12:00 84% 20 km
Di, 23.07. 11:00 77% 20 km
Di, 23.07. 10:00 83% 12 km
Di, 23.07. 9:00 85% 20 km
Di, 23.07. 8:00 92% 20 km
Ortszeit Niederschlagsmenge Niederschlagsart
Di, 23.07. 8:00 0.0 l/m2 in 12 Std. -
Di, 23.07. 2:00 0.0 l/m2 in 6 Std. -
Mo, 22.07. 20:00 0.0 l/m2 in 12 Std. -
Mo, 22.07. 14:00 0.0 l/m2 in 6 Std. -
Mo, 22.07. 8:00 0.2 l/m2 in 12 Std. -
Mo, 22.07. 2:00 0.0 l/m2 in 6 Std. -
So, 21.07. 20:00 4 l/m2 in 12 Std. -
So, 21.07. 14:00 3 l/m2 in 6 Std. -
Ortszeit Niederschlagsmenge Niederschlagsart
Di, 23.07. 13:00 0.0 l/m2 in 1 Std. -
Di, 23.07. 12:00 0.0 l/m2 in 1 Std. -
Di, 23.07. 11:00 keine Meldung -
Di, 23.07. 10:00 0.0 l/m2 in 1 Std. -
Di, 23.07. 9:00 0.0 l/m2 in 1 Std. -
Di, 23.07. 8:00 keine Meldung -
Ortszeit Stärke Spitze Richtung
km/h Bft. km/h Grad Sektor
Di, 23.07. 8:00 11 2 19 240° SW
Di, 23.07. 2:00 6 1 9 240° SW
Mo, 22.07. 20:00 13 3 26 280° W
Mo, 22.07. 14:00 11 2 28 290° W
Mo, 22.07. 8:00 11 2 22 300° NW
Mo, 22.07. 2:00 7 2 19 300° NW
So, 21.07. 20:00 11 2 31 270° W
So, 21.07. 14:00 9 2 20 200° S
Ortszeit Stärke Spitze Richtung
km/h Bft. km/h Grad Sektor
Di, 23.07. 13:00 17 3 35 240° SW
Di, 23.07. 12:00 15 3 33 240° SW
Di, 23.07. 11:00 13 3 33 240° SW
Di, 23.07. 10:00 11 2 24 240° SW
Di, 23.07. 9:00 11 2 24 240° SW
Di, 23.07. 8:00 11 2 19 240° SW
Ortszeit Untergrenze Bedeckung Gattung
total tief tief mittel hoch
Di, 23.07. 8:00 - 8/8 - - - -
Di, 23.07. 2:00 - 6/8 - - - -
Mo, 22.07. 20:00 - - - - - -
Mo, 22.07. 14:00 - 7/8 - - - -
Mo, 22.07. 8:00 - 8/8 - - - -
Mo, 22.07. 2:00 - 8/8 - - - -
So, 21.07. 20:00 - 8/8 - - - -
So, 21.07. 14:00 - 8/8 - - - -
Ortszeit Bedeckungsgrad in Achtel und Wolkenuntergrenze
Di, 23.07. 13:00 8
Di, 23.07. 12:00 8
Di, 23.07. 11:00 8
Di, 23.07. 10:00 8
Di, 23.07. 9:00 8
Di, 23.07. 8:00 8
Ortszeit Luftdruck NN (hPa) Tendenz (hPa in 3 Std.)
Di, 23.07. 8:00 1021 + 0,3
Di, 23.07. 2:00 1022 0,0
Mo, 22.07. 20:00 1020 + 0,2
Mo, 22.07. 14:00 1020 + 0,6
Mo, 22.07. 8:00 1019 + 1,6
Mo, 22.07. 2:00 1016 + 1,9
So, 21.07. 20:00 1012 + 0,9
So, 21.07. 14:00 1010 + 0,3
Ortszeit Luftdruck NN (hPa) Tendenz (hPa in 3 Std.)
Di, 23.07. 13:00 1020 - 0,3
Di, 23.07. 12:00 1021 - 0,3
Di, 23.07. 11:00 1020 - 0,2
Di, 23.07. 10:00 1021 0,0
Di, 23.07. 9:00 1021 + 0,1
Di, 23.07. 8:00 1021 + 0,3
Ortszeit Schneehöhe (cm)
Di, 23.07. 8:00 0
Di, 23.07. 2:00 0
Mo, 22.07. 20:00 0
Mo, 22.07. 14:00 0
Mo, 22.07. 8:00 0
Mo, 22.07. 2:00 0
So, 21.07. 20:00 0
So, 21.07. 14:00 0
Ortszeit Schneehöhe (cm)
Di, 23.07. 13:00 -
Di, 23.07. 12:00 -
Di, 23.07. 11:00 0
Di, 23.07. 10:00 -
Di, 23.07. 9:00 -
Di, 23.07. 8:00 0
Link zu dieser Seite / Seite empfehlen

Das Wetter in ...